Wind_Speed
27 26 26 26 23 18 18 22 22 24 26 28 29 31 28 29 29 33 30 25 25 24 25 25 28 28 27 27 26 26 24 22 22 24 24 25 24 25 25 25 24 24 24 25 24 23 24 24 25
28 28 28 28 25 19 21 22 20 25 26 28 26 28 35 32 30 31 29 26 27 26 28 27 25 25 24 24 24 24 24 24 23 23 25 27 26 26 26 27 27 28 27 27 27 28 27 28 27
29 29 29 30 22 19 22 20 20 22 25 25 25 30 29 29 28 32 31 28 26 26 26 27 27 27 27 27 26 26 26 25 24 24 26 27 27 29 29 29 30 30 30 31 31 32 32 32 31
29 28 30 27 21 21 22 17 22 22 22 24 23 29 27 29 31 31 31 29 28 28 27 27 28 27 28 29 30 30 28 27 27 27 27 27 28 29 30 31 32 33 33 34 35 36 36 36 34
28 29 30 23 20 24 23 16 21 19 21 20 18 24 24 29 28 26 28 28 28 28 27 27 27 27 28 29 30 32 33 34 33 33 32 31 30 30 30 31 33 35 36 36 37 38 39 39 40
29 29 25 20 23 23 20 17 19 18 19 16 20 18 20 24 27 27 26 28 27 29 29 27 25 25 26 26 28 30 32 33 34 33 34 35 35 36 37 38 37 38 39 40 40 41 43 43 43
26 29 24 23 24 21 19 17 16 17 18 14 20 14 15 17 20 22 24 26 27 26 26 26 23 24 24 23 21 21 21 24 27 28 28 29 31 32 33 35 36 38 39 40 44 46 47 45 46
28 30 25 21 22 20 15 14 11 13 12 10 16 8 14 22 21 21 21 20 16 14 14 14 13 12 11 11 10 9 9 9 12 14 15 18 21 24 26 29 32 35 36 38 39 43 46 49 52
32 27 21 22 23 20 15 12 10 9 10 13 10 11 17 13 13 13 13 11 11 11 13 14 12 9 7 7 8 9 10 11 13 16 19 22 24 26 27 29 31 33 35 36 38 41 43 45 48
31 25 22 30 25 18 15 15 10 8 8 7 10 11 10 8 10 10 10 10 10 12 14 13 12 12 12 13 13 13 15 18 21 23 27 29 32 34 37 38 40 42 43 44 44 45 45 46 44
29 24 28 31 24 20 20 18 13 10 9 8 8 10 11 10 10 10 11 10 12 14 15 14 15 15 14 14 16 18 21 23 26 29 31 34 36 39 41 44 47 50 52 53 55 54 54 54 52
31 28 33 30 24 23 21 18 16 12 12 11 11 12 12 12 13 13 13 12 14 16 17 17 18 18 19 19 22 24 26 28 30 33 36 39 40 42 44 46 48 51 55 58 61 61 61 61 61
32 31 34 30 25 26 22 20 17 14 15 13 13 13 16 16 16 17 17 17 17 18 20 20 22 23 23 25 26 27 29 31 34 37 39 41 43 44 45 47 47 48 51 55 59 62 65 64 64
31 32 31 32 29 28 25 23 17 20 19 16 18 17 18 19 20 21 21 21 21 22 23 25 25 26 27 28 29 29 31 34 37 41 44 46 46 46 47 47 47 44 45 47 48 48 47 50 50
32 33 34 32 30 30 27 25 17 26 18 18 19 19 19 20 22 22 23 24 24 25 26 27 28 28 28 29 29 31 34 37 40 42 44 44 44 44 45 46 45 44 46 47 48 48 49 49 49
35 36 33 30 33 29 30 22 24 25 22 21 19 20 20 20 22 24 25 26 26 28 28 29 29 30 29 29 30 33 35 38 40 42 41 40 41 43 46 49 50 52 52 53 54 55 56 59 58
33 31 30 33 32 31 30 24 25 27 24 23 21 21 21 22 24 26 27 28 28 28 29 29 29 29 29 28 31 34 36 38 39 38 38 40 41 43 45 47 51 56 61 61 61 61 62 62 65
29 30 32 34 32 32 31 27 29 29 26 25 23 23 23 24 26 28 29 30 30 29 29 30 29 29 28 28 30 35 34 36 37 39 40 43 45 48 50 53 55 57 59 61 63 65 66 66 66
33 33 34 34 31 33 32 30 30 31 29 27 26 25 25 25 28 28 30 31 31 30 29 30 27 28 27 28 31 31 33 36 40 42 45 48 50 52 55 59 61 61 63 65 68 70 69 69 69
33 33 33 35 33 34 34 31 31 32 29 28 29 27 27 28 27 30 30 30 31 29 29 29 28 28 28 30 32 30 32 36 39 43 48 52 54 58 62 65 65 66 67 70 71 72 73 72 73
34 34 33 35 33 36 37 34 32 32 31 30 29 30 31 30 27 28 30 30 29 29 30 28 29 29 30 31 32 33 36 38 41 46 52 57 62 66 69 70 68 69 69 67 67 66 64 62 59
34 34 35 35 36 38 38 40 33 32 32 31 31 31 33 33 28 28 29 29 29 29 28 29 30 30 31 32 33 35 37 41 47 51 56 62 68 73 75 75 72 66 62 56 52 51 50 52 51
36 35 35 36 38 40 40 43 34 32 30 31 34 33 31 31 29 28 28 29 29 29 29 30 30 32 33 32 34 36 40 46 51 55 61 67 75 79 79 71 63 53 44 43 45 48 50 51 50
35 36 35 38 40 44 38 41 42 31 29 30 32 34 32 29 29 29 28 29 29 29 30 31 32 34 34 35 37 40 44 49 54 60 67 73 79 77 64 53 45 37 37 42 43 44 46 49 51
35 33 35 38 40 45 37 38 43 29 29 28 31 32 31 29 29 30 30 29 29 30 31 32 33 34 34 37 40 43 46 51 58 65 71 77 73 53 45 39 35 38 39 40 42 44 45 46 46
39 38 37 39 40 39 37 41 38 31 29 27 29 30 31 29 29 30 30 30 29 30 31 31 32 33 36 40 43 44 47 54 62 67 74 67 48 40 36 37 38 38 36 36 38 41 43 47 50
47 48 39 41 41 44 43 42 38 31 27 26 28 29 30 30 29 29 30 30 30 30 31 31 32 35 38 41 40 43 47 56 63 70 58 41 38 37 38 37 36 34 34 38 39 40 44 46 49
41 42 43 46 47 48 48 44 40 30 26 28 28 30 31 32 31 30 30 31 29 31 33 32 32 34 36 36 38 42 49 56 63 54 39 38 36 35 33 30 29 34 35 41 41 41 40 39 43
41 40 44 44 46 47 47 44 38 38 32 30 30 31 31 31 30 31 33 34 33 32 31 29 29 33 34 33 36 42 49 56 53 37 37 32 32 32 28 28 26 31 38 35 33 31 32 35 40
40 44 43 44 43 47 48 44 41 36 34 29 29 31 32 33 29 33 35 34 33 30 27 27 29 31 30 30 35 42 49 50 37 36 33 29 29 27 26 25 28 30 36 30 30 32 34 35 39
Wind_Direction
247 246 244 242 246 254 256 258 256 260 260 263 254 250 245 243 240 246 247 244 242 243 248 245 244 246 250 250 251 250 243 237 241 247 250 252 250 249 248 248 247 241 238 240 241 241 238 244 254
245 243 242 244 248 254 258 256 260 261 265 266 264 246 238 238 241 245 248 241 242 241 241 241 243 245 245 247 248 246 244 245 239 239 245 249 252 255 254 254 252 253 250 248 248 246 241 241 243
244 241 238 242 245 257 255 264 274 268 264 259 254 246 237 234 240 241 243 241 239 240 243 243 244 244 246 245 246 247 245 245 245 244 243 246 248 251 253 253 253 253 254 254 254 255 253 250 246
243 239 239 240 244 256 257 261 266 275 274 259 244 234 232 227 230 236 238 241 243 245 243 246 246 248 249 249 248 246 246 245 247 252 251 251 252 252 255 258 258 256 255 254 254 253 254 257 256
239 236 238 238 245 247 254 252 265 273 266 251 241 229 230 231 233 234 240 244 244 246 248 248 251 252 252 252 252 253 253 253 256 255 253 252 254 256 258 260 262 264 263 261 259 257 257 255 255
238 239 236 235 241 248 256 257 263 264 255 234 234 234 231 230 233 236 236 241 244 244 248 249 252 254 255 256 257 256 256 258 259 258 259 260 260 260 261 262 263 264 265 266 265 263 262 260 256
239 236 229 231 241 248 254 246 254 256 246 234 239 225 232 237 233 235 241 245 246 249 252 257 259 259 256 256 259 267 271 268 268 268 270 271 270 269 267 267 267 266 266 268 268 265 264 264 263
236 234 228 234 242 246 247 246 244 243 231 223 238 233 230 235 237 236 239 242 240 231 223 221 230 245 249 248 254 262 267 271 273 275 275 275 275 275 273 271 271 270 270 271 270 272 270 265 263
234 232 226 235 236 237 236 235 223 224 210 216 219 190 221 229 225 216 214 207 198 202 214 223 233 237 240 236 247 259 267 273 276 277 278 279 278 276 276 275 274 274 274 274 273 272 273 274 264
236 230 225 233 229 229 227 224 221 199 193 198 213 215 228 219 214 212 204 204 212 220 230 233 231 228 240 254 263 273 281 286 287 287 286 285 282 281 279 277 276 277 277 276 274 271 272 273 273
233 226 228 231 224 221 221 217 217 212 203 193 202 207 213 235 233 238 238 227 231 234 243 239 243 248 259 271 274 278 284 287 291 293 294 294 293 290 288 287 284 283 281 279 276 274 273 271 270
231 226 233 229 218 222 218 220 220 217 218 211 215 234 236 238 244 250 254 251 240 238 244 251 257 261 269 276 281 285 288 293 297 300 301 301 300 298 293 289 286 281 276 274 273 272 271 270 269
228 227 234 228 218 218 218 224 224 222 224 227 218 233 247 246 252 258 258 255 253 246 247 255 261 264 269 274 279 285 292 296 301 303 304 304 303 301 298 295 290 283 279 275 272 271 269 270 270
231 232 235 226 215 220 218 225 225 237 230 231 241 235 244 255 256 254 253 252 254 256 254 258 263 268 271 276 282 289 295 301 304 307 308 307 305 302 300 298 294 287 282 279 276 273 273 271 272
230 231 228 224 215 218 221 226 218 238 237 240 245 251 248 250 254 255 258 256 258 257 258 261 266 269 274 279 285 293 299 304 307 307 307 306 305 303 299 293 285 277 277 276 275 276 277 275 278
229 229 224 220 218 218 226 225 229 237 237 239 243 249 257 257 255 256 259 260 261 262 262 266 271 277 278 282 291 298 301 306 308 309 308 307 306 305 301 296 286 278 277 275 272 269 276 279 278
230 226 221 218 217 220 229 225 232 237 236 240 243 250 255 260 261 260 260 262 263 265 267 270 274 277 279 289 296 300 305 308 309 309 308 310 310 310 309 304 294 284 277 276 275 274 274 275 276
228 223 218 216 220 223 230 229 232 235 236 241 247 251 258 264 265 262 263 265 267 268 269 271 274 276 280 289 294 302 306 310 311 312 313 313 313 313 312 308 301 292 286 281 279 277 275 274 272
221 222 220 220 221 228 232 232 237 238 239 243 249 256 260 264 267 266 265 265 266 268 269 272 274 274 282 285 295 301 308 311 312 315 315 314 313 311 309 306 299 292 288 283 279 276 274 274 273
227 226 228 226 227 233 237 234 241 245 242 247 253 257 262 268 267 269 265 265 264 265 267 270 269 272 277 283 293 298 305 308 311 312 313 312 310 309 306 303 298 294 290 284 279 275 275 275 274
231 230 231 235 234 238 240 238 240 247 250 249 254 261 266 268 266 264 266 262 262 264 267 267 267 271 274 283 289 296 303 307 308 310 312 311 311 308 305 302 298 295 290 284 281 280 277 275 274
234 236 236 240 239 240 244 244 240 246 251 256 256 260 266 270 265 260 261 260 260 262 265 265 268 272 275 284 290 298 303 307 307 309 311 312 310 309 306 304 300 296 291 286 283 281 279 278 275
236 238 240 241 243 242 242 251 239 246 250 255 261 264 263 264 262 258 257 259 261 266 266 266 269 273 277 285 293 297 303 306 307 310 313 311 308 308 307 302 298 295 289 286 285 283 281 279 277
235 234 236 239 243 244 247 252 250 246 249 253 261 266 266 261 257 258 259 260 263 266 266 268 272 275 279 285 292 298 303 306 310 315 313 309 307 309 306 303 301 296 291 290 288 286 283 279 275
232 238 240 242 243 249 251 251 257 250 248 250 252 258 262 260 257 259 262 264 266 266 268 269 273 276 278 286 296 302 306 309 314 314 310 308 311 310 308 307 300 296 297 296 294 290 287 279 274
226 231 235 243 244 248 250 250 255 254 251 251 256 257 256 255 254 257 260 262 264 266 269 271 275 278 283 292 301 304 307 315 315 312 311 313 313 313 309 305 302 302 299 296 300 297 289 281 278
237 229 229 237 242 245 246 247 252 253 253 253 255 255 256 256 255 256 259 262 267 269 271 272 275 282 290 297 301 304 315 315 316 314 317 317 319 314 310 308 305 302 300 303 305 305 301 295 288
245 238 235 237 242 244 248 249 248 251 252 258 257 255 254 255 256 258 262 264 267 272 274 276 281 289 294 300 302 312 316 319 318 320 322 321 318 318 316 314 313 309 308 310 310 307 307 305 301
248 243 240 244 249 250 252 255 257 250 252 256 250 251 255 258 258 260 262 266 271 271 272 278 287 292 297 298 307 316 319 321 322 326 323 320 320 323 323 318 321 323 325 324 320 320 320 318 316
238 240 239 240 244 249 252 253 255 251 252 248 249 252 253 254 256 265 268 271 270 270 275 280 286 291 294 301 315 319 324 323 324 326 326 322 327 325 329 325 338 335 337 333 332 328 330 327 325
Height
5782 5783 5783 5784 5788 5788 5789 5788 5789 5788 5789 5790 5792 5795 5799 5801 5804 5805 5805 5811 5813 5814 5814 5816 5817 5818 5820 5822 5823 5825 5826 5826 5827 5829 5830 5832 5831 5832 5833 5833 5834 5833 5834 5834 5835 5835 5837 5837 5838
5777 5777 5778 5779 5783 5784 5784 5784 5785 5784 5785 5785 5787 5788 5791 5794 5799 5800 5803 5806 5807 5808 5809 5811 5813 5815 5816 5817 5819 5821 5822 5824 5824 5824 5826 5827 5828 5829 5829 5831 5830 5831 5831 5832 5832 5832 5832 5832 5833
5771 5772 5775 5774 5778 5780 5780 5780 5778 5778 5779 5782 5782 5781 5786 5791 5793 5794 5797 5800 5802 5804 5806 5807 5809 5811 5812 5814 5815 5816 5818 5820 5820 5822 5822 5823 5823 5824 5825 5825 5826 5826 5827 5827 5828 5829 5829 5829 5829
5766 5768 5769 5771 5774 5775 5775 5777 5772 5772 5774 5773 5775 5775 5780 5784 5787 5789 5792 5795 5798 5800 5802 5803 5805 5806 5808 5809 5811 5812 5814 5814 5816 5818 5818 5819 5819 5819 5820 5822 5822 5822 5821 5822 5823 5823 5824 5824 5825
5761 5762 5764 5768 5770 5769 5768 5770 5768 5768 5767 5767 5770 5772 5776 5781 5784 5786 5789 5791 5794 5795 5798 5799 5801 5802 5804 5805 5806 5807 5808 5810 5811 5812 5813 5814 5814 5815 5816 5816 5817 5817 5818 5817 5817 5817 5817 5817 5818
5756 5758 5761 5764 5764 5764 5764 5766 5764 5763 5763 5765 5765 5771 5773 5776 5780 5782 5785 5787 5789 5791 5793 5795 5797 5798 5798 5800 5801 5802 5803 5804 5805 5806 5807 5808 5808 5809 5810 5811 5810 5811 5811 5812 5811 5812 5812 5811 5811
5752 5751 5756 5758 5760 5760 5761 5761 5760 5760 5759 5763 5762 5768 5771 5773 5776 5779 5781 5783 5785 5787 5789 5790 5792 5793 5794 5795 5796 5797 5798 5799 5800 5801 5802 5803 5803 5804 5804 5804 5804 5804 5804 5804 5803 5803 5803 5803 5803
5746 5745 5751 5755 5755 5756 5757 5758 5757 5757 5758 5761 5760 5768 5769 5769 5772 5775 5777 5779 5781 5783 5785 5786 5788 5789 5790 5792 5793 5794 5795 5796 5796 5797 5798 5798 5798 5798 5798 5798 5797 5797 5797 5796 5796 5795 5795 5795 5794
5737 5743 5748 5750 5750 5752 5754 5755 5755 5755 5756 5758 5760 5763 5763 5767 5770 5772 5774 5776 5779 5781 5782 5783 5785 5787 5788 5789 5790 5791 5792 5792 5793 5793 5792 5793 5792 5792 5791 5791 5790 5789 5789 5788 5787 5787 5786 5786 5786
5733 5740 5745 5740 5744 5749 5751 5753 5754 5754 5754 5756 5759 5762 5763 5765 5767 5770 5773 5775 5777 5778 5779 5781 5783 5785 5785 5786 5787 5787 5787 5787 5787 5787 5787 5786 5785 5785 5784 5783 5781 5781 5780 5779 5778 5777 5776 5776 5776
5730 5737 5736 5736 5741 5744 5746 5748 5750 5751 5752 5755 5757 5760 5762 5763 5765 5767 5769 5772 5774 5775 5775 5777 5779 5780 5781 5781 5782 5782 5781 5780 5780 5780 5779 5779 5778 5777 5776 5775 5773 5771 5769 5768 5767 5766 5766 5765 5764
5724 5729 5729 5733 5736 5739 5743 5745 5746 5748 5750 5752 5754 5756 5759 5761 5762 5764 5766 5768 5770 5772 5772 5773 5774 5775 5775 5775 5775 5775 5774 5774 5773 5772 5771 5770 5768 5767 5766 5763 5761 5759 5757 5755 5753 5752 5751 5752 5752
5718 5723 5724 5728 5732 5734 5739 5741 5743 5745 5747 5748 5752 5753 5754 5757 5759 5760 5762 5763 5765 5767 5768 5768 5769 5769 5770 5770 5770 5769 5768 5767 5765 5764 5762 5760 5758 5756 5753 5751 5748 5745 5743 5741 5739 5737 5736 5735 5735
5716 5718 5721 5723 5727 5730 5734 5735 5740 5740 5742 5745 5746 5750 5751 5752 5753 5756 5757 5759 5759 5761 5762 5763 5764 5764 5764 5764 5763 5762 5760 5758 5755 5753 5751 5749 5748 5745 5742 5738 5735 5733 5730 5728 5726 5724 5723 5722 5721
5710 5710 5712 5718 5721 5724 5728 5731 5736 5734 5738 5741 5742 5743 5746 5748 5749 5751 5752 5754 5755 5756 5756 5757 5757 5758 5757 5757 5755 5754 5751 5749 5747 5745 5743 5741 5738 5734 5732 5729 5725 5722 5720 5717 5715 5712 5711 5710 5709
5701 5702 5707 5713 5715 5720 5721 5728 5729 5730 5732 5735 5738 5739 5740 5742 5744 5745 5747 5748 5749 5749 5750 5750 5750 5750 5750 5749 5748 5746 5743 5741 5738 5736 5733 5730 5727 5724 5720 5717 5714 5711 5709 5706 5703 5702 5699 5695 5695
5695 5699 5704 5706 5709 5714 5716 5722 5724 5725 5727 5729 5732 5734 5735 5737 5738 5739 5740 5742 5743 5743 5743 5743 5744 5744 5743 5741 5739 5738 5735 5732 5729 5727 5724 5720 5717 5713 5708 5704 5700 5697 5695 5692 5688 5686 5684 5683 5679
5691 5694 5697 5700 5704 5707 5710 5716 5717 5719 5721 5724 5726 5727 5729 5731 5732 5733 5734 5735 5735 5736 5737 5736 5737 5736 5735 5734 5732 5730 5727 5723 5720 5717 5714 5710 5705 5700 5695 5691 5687 5681 5677 5674 5670 5668 5666 5665 5663
5680 5685 5689 5694 5697 5700 5703 5709 5712 5713 5715 5718 5719 5721 5723 5724 5725 5726 5726 5727 5728 5728 5729 5729 5729 5728 5728 5727 5724 5722 5718 5715 5711 5707 5703 5698 5693 5688 5683 5678 5672 5666 5661 5656 5652 5648 5646 5644 5642
5675 5680 5683 5687 5690 5692 5695 5702 5703 5705 5709 5711 5712 5714 5715 5717 5718 5718 5719 5719 5720 5721 5721 5721 5721 5721 5720 5718 5716 5714 5711 5707 5702 5698 5692 5686 5681 5674 5668 5661 5654 5647 5641 5635 5630 5627 5625 5624 5621
5668 5672 5676 5679 5683 5684 5687 5692 5696 5698 5701 5704 5706 5706 5707 5709 5711 5711 5711 5712 5713 5713 5713 5714 5713 5713 5712 5710 5708 5705 5702 5697 5694 5688 5681 5673 5666 5659 5651 5644 5636 5629 5621 5615 5610 5606 5604 5603 5601
5662 5666 5669 5671 5674 5676 5679 5681 5689 5692 5693 5696 5699 5700 5699 5700 5703 5703 5703 5705 5705 5705 5706 5706 5706 5705 5704 5702 5699 5696 5693 5689 5683 5677 5669 5659 5650 5641 5632 5623 5614 5606 5599 5595 5592 5589 5587 5585 5586
5656 5658 5660 5662 5664 5667 5672 5671 5683 5684 5687 5689 5688 5691 5693 5693 5694 5695 5696 5697 5698 5698 5698 5698 5697 5697 5696 5693 5690 5687 5683 5679 5672 5664 5655 5645 5634 5623 5612 5602 5594 5588 5584 5581 5578 5576 5573 5571 5570
5647 5650 5652 5654 5656 5656 5665 5665 5668 5678 5681 5681 5680 5680 5683 5685 5686 5687 5688 5689 5690 5690 5690 5690 5690 5689 5687 5685 5682 5679 5674 5667 5659 5650 5641 5630 5617 5605 5593 5585 5579 5576 5574 5571 5567 5563 5561 5558 5556
5637 5642 5644 5646 5646 5647 5656 5658 5659 5669 5672 5673 5673 5674 5675 5677 5678 5679 5680 5681 5682 5682 5682 5682 5682 5681 5679 5676 5673 5669 5662 5655 5646 5637 5626 5613 5601 5590 5582 5576 5571 5568 5564 5560 5556 5552 5548 5545 5543
5627 5631 5635 5635 5638 5641 5646 5647 5654 5659 5662 5665 5666 5667 5668 5669 5670 5672 5672 5673 5674 5675 5675 5674 5674 5672 5670 5667 5663 5658 5652 5643 5634 5623 5610 5598 5588 5581 5574 5569 5564 5559 5555 5551 5546 5541 5536 5531 5528
5618 5620 5627 5627 5630 5631 5634 5639 5645 5650 5654 5656 5657 5658 5659 5661 5662 5663 5664 5665 5666 5666 5667 5667 5666 5664 5662 5659 5654 5649 5641 5633 5622 5609 5596 5588 5580 5574 5568 5562 5556 5551 5547 5541 5536 5530 5523 5517 5512
5607 5613 5615 5617 5619 5621 5624 5629 5636 5642 5646 5647 5649 5649 5651 5652 5654 5654 5656 5657 5658 5658 5658 5658 5657 5656 5653 5649 5645 5639 5632 5622 5610 5597 5588 5581 5574 5567 5560 5554 5549 5544 5537 5531 5524 5518 5511 5505 5499
5597 5601 5605 5610 5611 5612 5615 5619 5626 5632 5637 5638 5639 5641 5642 5645 5646 5647 5647 5649 5650 5649 5649 5649 5649 5647 5644 5641 5637 5631 5622 5612 5599 5590 5582 5575 5568 5561 5554 5548 5543 5537 5529 5521 5515 5509 5502 5494 5487
5585 5590 5594 5597 5602 5603 5606 5610 5615 5621 5626 5628 5631 5631 5633 5636 5639 5639 5638 5640 5641 5641 5641 5642 5640 5639 5637 5634 5629 5622 5613 5602 5591 5583 5576 5569 5562 5555 5549 5543 5537 5531 5522 5515 5508 5502 5494 5486 5477